{"data":{"norad_id":47399,"intl_designator":"2021-005BC","name":"STARLINK-2121","alt_names":[],"object_type":"PAYLOAD","status":"ACTIVE","operator":null,"country":"US","launch_date":"2021-01-20","launch_site_code":"AFETR","launch_vehicle":null,"mission":null,"orbit_class":"UNKNOWN","rcs_meters":null,"size_class":null,"mass_kg":null,"dimensions":null,"purposes":["comms"],"wikipedia_slug":null,"has_3d_model":false,"image_url":null,"decayed_at":null,"tle_current":{"epoch":"2026-05-25T03:12:41.285952Z","epoch_age_seconds":57422,"freshness":"FRESH","line1":"1 47399U 21005BC  26145.13381118  .00005629  00000+0  19290-3 0  9999","line2":"2 47399  53.1586  41.1567 0001107  91.0907 269.0221 15.31719828295105","mean_motion":15.31719828,"eccentricity":0.0001107,"inclination_deg":53.1586,"raan_deg":41.1567,"arg_perigee_deg":91.0907,"mean_anomaly_deg":269.0221,"bstar":0.0001929,"rev_number":29510,"period_min":94.011970967317,"perigee_km":469.92272548664,"apogee_km":471.4390537674,"semimajor_km":6848.817889627,"source":"CELESTRAK","updated_at":"2026-05-25T13:38:16.554239Z"}}}